www.pogodaiklimat.ru

Погода и климат >> Архив погоды >> Украина >> Великий Бурлук


ПОГОДА в Великом Бурлуке

  • Прогноз погоды в Великом Бурлуке
  • Монитор погоды в Великом Бурлуке

АРХИВ ПОГОДЫ в Великом Бурлуке

Время (UTC), дата Ветер
(напр.,м/с)
 
Видим.   Явления Облачность Т
(С)
Тd
(С)
f
(%)
Тe
(С)
Тes
(С)
Комфортность P
(гПа)
Po
(гПа)
Тmin
(С)
Tmax
(С)
R
(мм)
R24
(мм)
S
(см)
00 15.09 СЗ 2 10 км ясно +8.8 +5.7 81 +7 +7 1022.4 1000.9
03 15.09 СЗ 2 10 км 4/0
[Cs]
+6.9 +4.0 82 +5 +5 1022.8 1001.2
06 15.09 З 2 10 км 4/0
[Ac lent Ci]
+12.5 +5.2 61 +12 +15 1022.9 1001.7 +6.6
09 15.09 З 5 10 км 6 баллов +17.1 +3.0 39
12 15.09 З 5 10 км 8/6 600 м
[Cu med, cong Ci]
+20.1 +2.0 30 +20 +21 1020.2 999.6
15 15.09 З 3 10 км 9/0
[Ci]
+18.3 +1.7 33 +19 +19 1019.2 998.5
18 15.09 штиль 0 10 км 9/0
[Cs]
+13.2 +3.8 53 +13 +13 1019.3 998.2 +20.8
21 15.09 ЮЗ 3 10 км 9/0
[Cs]
+11.1 +1.9 53 +10 +10 1018.4 997.2
00 16.09 З 4 10 км 9/0
[Cs]
+10.4 +2.0 56 +8 +8 1016.8 995.6
03 16.09 ЮЗ 5 10 км 6/0
[Ci]
+10.9 +1.4 52 +8 +8 1014.4 993.3
06 16.09 ЮЗ 6 10 км 4/0
[Cc]
+15.9 +2.7 41 +15 +16 1012.6 991.9 +9.3
09 16.09 З 8 10 км 4/0
[Ci]
+22.3 +1.3 25 +22 +23 комфорт 1009.4 989.2
12 16.09 З 8 10 км 4/0
[Ac lent Cs]
+23.9 +2.1 24 +23 +24 комфорт 1007.4 987.3
15 16.09 З 8 10 км 9/9 600 м
[Cb cap]
+22.9 +4.4 30 +23 +23 комфорт 1006.6 986.5
18 16.09 СЗ 1 10 км 10/10 600 м
[Cb cap]
+20.1 +8.7 48 +22 +22 комфорт 1007.5 987.2 +25.2
21 16.09 штиль 0 10 км 10/10 600 м
[Cb cap]
+16.7 +8.9 60 +17 +17 1007.5 986.9
00 17.09 штиль 0 10 км 9/8 600 м
[Sc Ac trans]
+14.1 +9.9 76 +14 +14 1006.7 986.0
03 17.09 штиль 0 10 км 9/6 600 м
[Sc Ac trans]
+13.3 +8.2 71 +13 +13 1006.4 985.6
06 17.09 З 5 10 км 9/4 600 м
[Sc Ac trans]
+15.9 +5.5 50 +15 +15 1006.3 985.7 +12.7
09 17.09 З 6 10 км 10/8 600 м
[Sc Ac As]
+16.4 +4.6 45 +15 +16 1006.7 986.1
12 17.09 З 6 10 км 9/8 600 м
[Sc Ac As]
+18.1 +1.9 34 +18 +18 1006.3 985.8
15 17.09 Ю 3 10 км 4/0
[Ac trans]
+17.6 +2.0 35 +18 +18 1005.7 985.2
18 17.09 ЮЗ 3 10 км 5/0
[Ac trans]
+13.5 +3.8 52 +13 +13 1006.4 985.6 +18.4
21 17.09 ЮЗ 1 10 км 9/0
[Ac trans]
+10.5 +4.2 65 +10 +10 1007.0 986.0
00 18.09 штиль 0 10 км ясно +8.5 +4.9 78 +8 +8 1006.5 985.4
03 18.09 ЮЗ 2 10 км 3/0
[Ac trans]
+5.5 +3.8 89 +3 +3 1005.4 984.1
06 18.09 ЮЗ 4 10 км 10/6 600 м
[Cb calv Ac As]
+10.8 +6.9 77 +8 +9 1003.7 982.8 +5.1
09 18.09 З 6 10 км {ливн. осадки, дождь} 9/9 600 м
[Cu Sc]
+12.0 +9.4 84 +9 +10 1003.5 982.7
12 18.09 З 10 10 км слаб. ливневой дождь 10/10 600 м
[Cb cap]
+10.6 +7.3 80 +6 +6 1002.3 981.4
15 18.09 З 8 10 км {гроза, ливн. осадки} 8/8 600 м
[Cb calv]
+13.0 +1.1 44 +10 +10 1003.3 982.5
18 18.09 З 7 10 км {гроза, ливн. осадки} 4/4 600 м
[Sc]
+9.7 +1.1 55 +6 +6 1006.5 985.4 +16.4 2
21 18.09 З 6 10 км 3/0
[Cs]
+8.5 +2.5 66 +5 +5 1007.9 986.7
00 19.09 З 6 10 км ясно +7.5 +3.0 73 +3 +3 1010.1 988.8
03 19.09 З 4 10 км 9/8 600 м
[Sc Ac trans]
+7.2 +3.6 78 +4 +4 1012.6 991.2
06 19.09 З 4 10 км 10 баллов +9.3 +5.3 76 +6.7
09 19.09 З 5 10 км 10/10 600 м
[Cb cap]
+11.3 +4.3 62 +9 +9 1016.7 995.5
12 19.09 З 5 10 км 9/9 600 м
[Cb cap]
+14.1 +3.0 47 +13 +13 1016.3 995.4
15 19.09 З 4 10 км 8/8 600 м
[Cb calv]
+13.3 +2.5 48 +12 +12 1016.3 995.3
18 19.09 З 3 10 км 4/0
[Ac lent]
+8.9 +5.5 79 +6 +6 1017.9 996.5 +15.8
21 19.09 штиль 0 10 км 2 балла +6.6 +5.2 91
00 20.09 штиль 0 4000 м дымка 6/0
[Ac trans]
+4.8 +4.4 97 +4 +4 1018.2 996.5
03 20.09 штиль 0 4000 м дымка 6/0
[Ac trans]
+4.2 +3.5 95 +3 +3 1017.8 996.1
06 20.09 штиль 0 10 км 8/8 600 м
[Sc]
+9.1 +5.7 79 +8 +9 1017.2 995.9 +3.4
09 20.09 СЗ 5 10 км 9 баллов +12.5 +4.5 58
12 20.09 С 4 10 км 9/8 600 м
[Cu med, cong Ac trans]
+13.6 +1.9 45 +12 +13 1014.9 994.0
15 20.09 Ю 2 10 км 7 баллов +11.7 +3.2 56
18 20.09 штиль 0 10 км 9/0
[Ac trans]
+9.5 +4.5 71 +9 +9 1015.4 994.1 +14.8
00 21.09 штиль 0 10 км 9/0
[Ac trans]
+5.9 +3.6 85 +5 +5 1015.4 993.9
03 21.09 штиль 0 10 км 10 баллов +6.7 +4.4 85
06 21.09 СЗ 3 10 км {ливн. осадки} 9/5 600 м
[Cb calv Ac trans]
+7.8 +5.6 86 +5 +6 1016.6 995.2 +5.1 0.0
09 21.09 С 3 10 км 9 баллов +11.5 +3.0 56
12 21.09 С 3 10 км в посл. час ливневой дождь 9 баллов +11.0 +2.3 55
15 21.09 СЗ 4 10 км {ливн. осадки} 9/8 600 м
[Cb calv Ac trans]
+10.9 +1.7 53 +9 +9 1016.8 995.6
18 21.09 СЗ 2 10 км 4 балла +6.7 +0.6 65 +12.6 0.0

 

Местоположение метеостанции Великий Бурлук (Харьковская область, Украина): широта 50.07 долгота 37.38 высота над уровнем моря 175 м.

В архиве по умолчанию представлена погода в Великом Бурлуке за последнюю неделю. Архивные данные за месяц целиком и за предыдущие месяцы, начиная с января 2011 года, Вы можете получить, выбрав интересующий диапазон дат из раскрывающегося списка и нажав кнопку "Ввод!".


*Определитесь, кто Вы:
робот инопланетянин человек

Внимание! Время в таблицах - всемирное. Для получения местного времени необходимо прибавить поправку, которая равна 2 ч.

Смотрите также архив погоды в соседних городах и на ближайших метеорологических станциях:

Погода в Новопскове (Луганская область, Украина) (45 км)
Погода в Валуйках (Белгородская область, Россия) (54 км)
Погода в Купянске (Харьковская область, Украина) (54 км)
Погода в Троицком (Луганская область, Украина) (64 км)
Погода в Комсомольском (Донецкая область, Украина) (80 км)
Погода в Новом Осколе (Белгородская область, Россия) (83 км)
Погода в Белгороде (Белгородская область, Россия) (84 км)
Погода в Харькове (Харьковская область, Украина) (90 км)
Погода в Сватово (Луганская область, Украина) (92 км)
Погода в Изюме (Харьковская область, Украина) (99 км)

Пояснения к столбцам:

Ветер - указаны скорость ветра в м/с - средняя за 10 мин, порывы в срок и между сроками (в фигурных скобках) и направление, откуда дует ветер: С - северный, СВ - северо-восточный, В - восточный, ЮВ - юго-восточный, Ю - южный, ЮЗ - юго-западный, З - западный, СЗ - северо-западный.
Видимость - горизонтальная дальность видимости в метрах или километрах. При видимости от 1 до 10 км при отсутствии осадков обычно наблюдается дымка, при ухудшении видимости до 1 км и менее - туман. В сухую погоду видимость может ухудшаться дымом, пылью или мглою.
Явления - указаны атмосферные явления, наблюдавшиеся в срок или в последний час перед сроком; фигурными скобками обозначены явления, наблюдавшиеся между сроками (за 1-3 часа до срока); квадратными скобками обозначены град или гололедные отложения с указанием их диаметра в мм.
Облачность - указаны через наклонную черту общая и нижняя облачность в баллах и высота нижней границы облаков в метрах; квадратными скобками обозначены формы облаков: Ci - перистые, Cs - перисто-слоистые, Cc - перисто-кучевые, Ac - высококучевые, As - высокослоистые, Sc - слоисто-кучевые, Ns - слоисто-дождевые, Cu - кучевые, Cb - кучево-дождевые. Подробнее классификацию облаков см. в Атласе облаков (PDF).
T - Температура воздуха - температура, измеренная на высоте 2 м над землей.
Td - Температура точки росы - температура, при понижении до которой содержащийся в воздухе водяной пар достигнет насыщения.
f - Относительная влажность воздуха - влажноcть воздуха, измеренная на высоте 2 м над землей.
Te - Эффективная температура - температура, которую ощущает одетый по сезону человек в тени. Характеристика душности погоды. При расчете учитывается влияние влажности воздуха и скорости ветра на теплоощущения человека.
Tes - Эффективная температура на солнце - температура, которую ощущает человек, с поправкой на солнечный нагрев. Характеристика знойности погоды. Зависит от высоты солнца над горизонтом, облачности и скорости ветра. Ночью, в пасмурную погоду, а также при ветре 12 м/с и более поправка равна нулю.
P - Атмосферное давление - приведенное к уровню моря атмосферное давление.
Po - Атмосферное давление - измеренное на уровне метеостанции атмосферное давление.
Tmin - Минимальная температура - минимум температуры воздуха на высоте 2 м над землей.
Tmax - Максимальная температура - максимум температуры воздуха на высоте 2 м над землей.
R - Количество осадков - Количество выпавших осадков за период времени, мм. При наведении курсора мыши на число - период времени, за который выпало указанное количество осадков.
R24 - Количество осадков - Количество выпавших осадков за 24 часа, мм.
S - Снежный покров - Высота снежного покрова, см. При наведении курсора мыши на число - состояние снежного покрова и степень покрытия местности в баллах.